PBO Station Position Time Series. Reference Frame : NAM14
Format Version,1.1.0
4-character ID,SHOS
Station name,SHOS_BRGN_CS1999
Begin Date, 1999-03-28
End Date, 2019-10-07
Release Date, 2019-10-08
Reference position, 35.9713452503 North Latitude, -116.2989852105 East Longitude, 582.40606 meters elevation,
Date, North (mm), East (mm), Vertical (mm), North Std. Deviation (mm), East Std. Deviation (mm),              Vertical Std. Deviation (mm), Quality,
1999-03-28,0.00, 0.00, 0.00, 2.29, 1.99, 8.84, repro,
1999-04-06,3.33, 1.17, 6.13, 2.26, 1.92, 8.48, repro,
1999-04-07,0.93, 0.09, 2.08, 2.21, 1.92, 8.42, repro,
1999-04-08,1.79, -0.25, -5.04, 2.19, 1.92, 8.35, repro,
1999-04-09,0.77, -1.85, -9.30, 2.26, 2.02, 8.93, repro,
1999-04-10,0.04, -0.58, -8.42, 2.20, 1.91, 8.39, repro,
1999-04-11,2.01, -0.96, 1.50, 2.19, 1.90, 8.30, repro,
1999-04-12,1.02, -1.24, -7.27, 2.18, 1.88, 8.31, repro,
1999-04-13,1.07, 0.22, -9.27, 2.17, 1.90, 8.33, repro,
1999-04-14,-1.25, -0.36, -3.56, 2.19, 1.91, 8.45, repro,
1999-04-15,0.25, 0.20, -5.76, 2.17, 1.89, 8.35, repro,
1999-04-16,0.49, -0.29, -2.12, 2.18, 1.94, 8.50, repro,
1999-04-17,0.25, -1.10, -2.19, 2.23, 1.90, 8.48, repro,
1999-04-18,1.50, -0.55, -2.10, 2.13, 1.86, 8.26, repro,
1999-04-19,1.41, -1.15, -1.35, 2.16, 1.89, 8.29, repro,
1999-04-20,1.73, -0.40, 5.43, 2.25, 1.93, 8.76, repro,
1999-04-21,0.91, -1.26, 8.28, 2.22, 1.90, 8.61, repro,
1999-04-22,1.28, 0.23, 6.64, 2.21, 1.89, 8.50, repro,
1999-04-23,-0.61, -0.67, 6.72, 2.25, 1.96, 8.66, repro,
1999-04-24,3.08, 0.60, 2.57, 2.23, 1.89, 8.49, repro,
1999-04-25,1.14, 0.11, 7.61, 2.25, 1.98, 8.90, repro,
1999-04-26,2.24, 0.57, 2.47, 2.20, 1.90, 8.46, repro,
1999-04-27,5.36, 2.68, 6.55, 2.22, 1.89, 8.41, repro,
1999-04-28,1.95, 0.93, -0.26, 2.22, 1.97, 8.59, repro,
1999-04-29,-0.17, -1.08, 4.91, 2.21, 1.97, 8.40, repro,
1999-04-30,0.34, -0.67, -3.53, 2.19, 1.97, 8.40, repro,
1999-05-01,1.93, -1.45, 4.36, 2.26, 2.02, 8.67, repro,
1999-05-02,1.89, -0.62, 13.09, 2.21, 1.97, 8.52, repro,
1999-05-03,0.82, 0.11, 14.99, 2.23, 2.02, 8.76, repro,
1999-05-04,0.76, -0.75, 13.06, 2.25, 2.03, 8.76, repro,
1999-05-05,1.75, -1.00, 4.45, 2.29, 2.05, 8.57, repro,
1999-05-06,2.62, -0.45, 2.95, 2.23, 1.97, 8.47, repro,
1999-05-07,0.53, -0.64, 2.79, 2.19, 1.90, 8.37, repro,
1999-05-08,1.20, -0.16, 9.00, 2.21, 1.96, 8.48, repro,
1999-05-09,1.60, 0.62, 4.23, 2.22, 1.96, 8.39, repro,
1999-05-10,1.09, -0.75, -1.13, 2.19, 1.90, 8.38, repro,
1999-05-11,1.35, -0.05, 6.39, 2.21, 1.99, 8.55, repro,
1999-05-12,2.65, 1.46, 1.52, 2.21, 1.97, 8.45, repro,
1999-05-13,0.05, -4.26, 20.68, 2.22, 1.98, 8.52, repro,
1999-05-14,1.78, 1.26, 10.46, 2.22, 2.00, 8.51, repro,
1999-05-15,1.38, 1.17, 8.25, 2.23, 1.98, 8.54, repro,
1999-05-16,1.08, 1.03, -3.67, 2.21, 1.96, 8.40, repro,
1999-05-17,2.21, -0.15, 6.28, 2.26, 2.03, 8.68, repro,
1999-05-18,1.80, -0.85, 11.38, 2.42, 2.14, 9.38, repro,
1999-05-19,2.00, -0.76, 11.50, 2.21, 1.91, 8.67, repro,
1999-05-20,0.35, -0.08, 5.74, 2.23, 1.98, 8.43, repro,
1999-05-21,1.42, -0.41, 6.48, 2.19, 1.93, 8.31, repro,
1999-05-22,-0.01, -0.58, 5.07, 2.24, 2.03, 8.75, repro,
1999-05-23,1.30, -0.46, 7.73, 2.21, 1.98, 8.55, repro,
1999-05-24,1.53, -1.08, 0.25, 2.20, 1.95, 8.52, repro,
1999-05-25,2.00, -0.43, 7.76, 2.18, 1.89, 8.36, repro,
1999-05-26,0.78, 0.71, -0.62, 2.19, 1.95, 8.39, repro,
1999-05-27,0.71, -0.93, 0.50, 2.16, 1.88, 8.21, repro,
1999-05-28,2.97, 0.18, 18.86, 2.17, 1.90, 8.42, repro,
1999-05-29,0.63, 0.86, 13.77, 2.17, 1.92, 8.37, repro,
1999-05-30,2.90, 0.64, 3.57, 2.20, 1.88, 8.26, repro,
1999-05-31,0.17, -0.17, -4.69, 2.13, 1.82, 8.02, repro,
1999-06-01,0.79, 0.35, 13.34, 2.17, 1.87, 8.23, repro,
1999-06-02,4.69, 1.11, 6.02, 2.26, 2.03, 8.59, repro,
1999-06-03,5.57, 6.75, 24.48, 2.33, 2.01, 8.75, repro,
1999-06-04,1.52, -1.56, 10.10, 2.21, 1.95, 8.33, repro,
1999-06-05,1.43, -0.53, 14.37, 2.22, 1.96, 8.41, repro,
1999-06-06,1.16, -0.48, 4.72, 2.18, 1.95, 8.35, repro,
1999-06-07,1.02, -0.42, 13.87, 2.18, 1.93, 8.38, repro,
1999-06-08,1.67, 0.07, 14.85, 2.22, 1.97, 8.44, repro,
1999-06-09,1.62, -0.05, 15.93, 2.23, 1.98, 8.60, repro,
1999-06-10,1.40, -1.35, 15.81, 2.23, 1.96, 8.50, repro,
1999-06-11,0.98, -1.26, -0.06, 2.28, 1.99, 8.76, repro,
1999-06-12,1.35, -1.26, 7.12, 2.19, 1.96, 8.44, repro,
1999-06-13,1.29, -2.81, 3.52, 2.29, 2.03, 8.69, repro,
1999-06-14,2.64, -0.00, 9.45, 2.47, 2.02, 9.24, repro,
1999-06-15,0.70, -1.71, 4.95, 2.33, 1.98, 8.91, repro,
1999-06-16,1.31, -1.11, 10.08, 2.23, 1.99, 8.55, repro,
1999-06-17,1.16, -0.70, 9.27, 2.26, 1.98, 8.57, repro,
1999-06-18,0.65, -0.38, 15.91, 2.21, 1.91, 8.36, repro,
1999-06-19,1.96, -0.98, 8.70, 2.25, 1.99, 8.60, repro,
1999-06-20,1.64, -1.28, 15.80, 2.21, 1.93, 8.47, repro,
1999-06-21,-0.97, -3.24, 0.02, 2.19, 1.91, 8.30, repro,
1999-06-22,0.29, -1.41, 7.73, 2.33, 1.93, 8.66, repro,
1999-06-23,0.60, -1.24, 12.85, 2.23, 1.93, 8.50, repro,
1999-06-24,-0.20, -1.04, 9.30, 2.25, 1.95, 8.58, repro,
1999-06-25,2.15, -0.16, 21.45, 2.30, 1.98, 8.77, repro,
1999-06-26,1.37, -1.74, 5.06, 2.27, 1.96, 8.55, repro,
1999-06-27,0.52, -1.49, 15.74, 2.32, 1.97, 8.91, repro,
1999-06-28,-1.17, -2.28, 9.93, 2.22, 1.93, 8.45, repro,
1999-06-29,0.50, -1.46, 12.36, 2.45, 2.05, 9.16, repro,
1999-06-30,1.00, -0.97, 14.08, 2.35, 1.95, 8.83, repro,
1999-07-01,0.24, -1.70, 20.38, 2.53, 2.13, 9.83, repro,
1999-07-02,-0.17, -1.40, 9.97, 2.38, 2.00, 9.16, repro,
1999-07-03,-0.50, -1.86, 21.36, 2.35, 2.00, 9.04, repro,
1999-07-04,1.31, -0.19, 10.84, 2.31, 1.97, 8.83, repro,
1999-07-05,1.95, -0.90, 11.85, 2.26, 1.95, 8.61, repro,
1999-07-06,2.39, -3.31, 12.90, 2.29, 2.04, 8.88, repro,
1999-07-07,0.82, -2.46, 5.60, 2.51, 2.09, 9.35, repro,
1999-07-08,-0.44, -0.32, 14.07, 2.35, 1.99, 8.82, repro,
1999-07-09,1.04, -0.61, 15.03, 2.33, 1.98, 8.69, repro,
1999-07-10,0.16, -0.12, 10.82, 2.47, 2.04, 9.35, repro,
1999-07-11,1.72, -0.25, 1.54, 2.35, 2.07, 9.10, repro,
1999-07-12,-0.18, -0.86, 9.31, 2.35, 2.02, 9.07, repro,
1999-07-13,0.56, -2.31, 6.42, 2.27, 1.93, 8.59, repro,
1999-07-14,0.30, -1.84, 10.89, 2.30, 2.02, 8.91, repro,
1999-07-15,-3.19, -2.27, 15.49, 2.41, 1.97, 8.96, repro,
1999-07-16,1.22, -2.54, 5.93, 2.29, 1.92, 8.99, repro,
1999-07-17,-0.87, -0.92, 7.86, 2.19, 1.90, 8.62, repro,
1999-07-18,0.06, -0.24, 1.69, 2.29, 1.91, 8.83, repro,
1999-07-19,-2.19, -2.69, 9.42, 2.28, 1.88, 8.70, repro,
1999-07-20,0.88, 0.60, 6.79, 2.73, 2.32, 11.12, repro,
1999-07-21,-0.69, -2.11, 10.10, 2.16, 1.90, 8.35, repro,
1999-07-22,0.21, -1.59, 2.29, 2.25, 1.85, 8.50, repro,
1999-07-23,-0.48, -1.61, 15.81, 2.27, 1.87, 8.65, repro,
1999-07-24,-0.75, -3.26, 12.31, 2.26, 1.87, 8.55, repro,
1999-07-25,0.20, -1.66, 14.22, 2.29, 1.93, 8.80, repro,
1999-07-26,0.95, -3.34, 9.70, 2.31, 1.93, 8.72, repro,
1999-07-27,-1.04, -1.54, 17.01, 2.26, 1.91, 8.70, repro,
1999-07-28,0.22, -2.09, 12.99, 2.12, 1.88, 8.29, repro,
1999-07-29,-0.45, -3.57, 10.47, 2.22, 1.95, 8.49, repro,
1999-07-30,0.04, -2.37, 24.14, 2.23, 1.95, 8.55, repro,
1999-07-31,-0.27, -1.18, 16.64, 2.15, 1.86, 8.16, repro,
1999-08-01,0.85, -1.05, 10.24, 2.15, 1.86, 8.20, repro,
1999-08-02,2.10, -0.64, 6.43, 2.14, 1.84, 8.14, repro,
1999-08-03,0.84, -0.70, 8.23, 2.21, 1.91, 8.33, repro,
1999-08-04,-1.72, 0.09, 1.99, 2.19, 1.87, 8.41, repro,
1999-08-05,-0.48, -0.12, 9.27, 2.24, 1.92, 8.36, repro,
1999-08-06,-0.60, -1.91, 15.81, 2.25, 1.93, 8.57, repro,
1999-08-07,0.20, -1.04, 16.82, 2.17, 1.87, 8.27, repro,
1999-08-08,0.86, 0.60, 3.28, 2.15, 1.86, 8.23, repro,
1999-08-09,0.41, -1.98, 13.82, 2.31, 2.03, 8.62, repro,
1999-08-10,-0.18, -0.83, 14.66, 2.25, 2.00, 8.58, repro,
1999-08-11,1.45, -0.58, 14.67, 2.23, 1.97, 8.56, repro,
1999-08-12,1.68, -0.70, 11.83, 2.19, 1.88, 8.42, repro,
1999-08-13,1.11, -1.13, 5.51, 2.16, 1.87, 8.31, repro,
1999-08-14,1.15, -0.20, 15.27, 2.15, 1.86, 8.15, repro,
1999-08-15,0.05, 0.15, 13.49, 2.33, 1.98, 8.72, repro,
1999-08-16,0.54, 0.03, 13.22, 2.17, 1.90, 8.31, repro,
1999-08-17,3.43, 0.56, -11.61, 2.24, 1.97, 8.64, repro,
1999-08-18,1.13, -2.06, 5.99, 2.21, 1.91, 8.47, repro,
1999-08-19,1.03, -2.26, 16.37, 2.18, 1.92, 8.44, repro,
1999-08-20,1.12, -1.71, 8.66, 2.23, 1.93, 8.44, repro,
1999-08-21,0.56, -0.68, 6.40, 2.20, 1.93, 8.42, repro,
1999-08-22,3.30, -1.44, 3.10, 2.21, 1.94, 8.55, repro,
1999-08-23,0.74, -2.66, 3.20, 2.32, 1.94, 8.66, repro,
1999-08-24,1.39, -0.18, 4.09, 2.28, 1.95, 8.63, repro,
1999-08-25,-0.52, 0.94, 15.62, 2.28, 1.96, 8.56, repro,
1999-08-26,0.60, -2.17, 13.02, 2.35, 1.92, 8.95, repro,
1999-08-27,0.17, 0.34, 20.89, 2.24, 1.99, 8.43, repro,
1999-08-28,0.48, -3.50, 7.18, 2.25, 1.97, 8.45, repro,
1999-08-29,1.60, -1.21, 25.92, 2.27, 2.03, 9.78, repro,
1999-08-30,0.22, 0.29, 9.68, 2.58, 2.28, 9.95, repro,
1999-08-31,3.87, -3.61, 4.16, 2.26, 2.00, 8.51, repro,
1999-09-01,-0.88, -2.32, 3.71, 2.49, 2.07, 9.28, repro,
1999-09-02,-0.16, -1.06, 13.23, 2.25, 1.97, 8.52, repro,
1999-09-03,-1.43, -0.78, 10.07, 2.32, 1.98, 8.63, repro,
1999-09-04,0.77, -0.32, 10.43, 2.31, 1.97, 8.64, repro,
1999-09-05,1.24, -1.35, 4.87, 2.22, 1.90, 8.33, repro,
1999-09-06,-0.41, -0.79, 8.63, 2.38, 2.01, 8.84, repro,
1999-09-07,0.62, -0.96, 10.66, 2.70, 2.08, 10.00, repro,
1999-09-08,-0.19, -0.48, 8.85, 2.49, 2.04, 9.59, repro,
1999-09-09,0.61, -0.51, -4.02, 2.38, 1.99, 8.82, repro,
1999-09-10,-1.37, 1.54, 8.60, 2.32, 2.00, 8.62, repro,
1999-09-11,0.11, -0.96, 16.27, 2.58, 2.18, 9.66, repro,
1999-09-12,-0.34, -1.27, 6.95, 2.35, 1.95, 8.63, repro,
1999-09-13,0.48, -1.33, -1.58, 2.24, 1.93, 8.38, repro,
1999-09-14,0.54, -0.45, 10.16, 2.23, 1.93, 8.37, repro,
1999-09-15,0.80, 0.86, 10.25, 2.32, 1.96, 8.63, repro,
1999-09-16,1.06, -1.91, 16.54, 2.29, 2.00, 8.62, repro,
1999-09-17,0.29, 1.05, 21.69, 2.45, 2.10, 9.07, repro,
1999-09-18,2.58, -1.81, 5.72, 2.44, 2.08, 9.15, repro,
1999-09-19,0.34, -0.80, 14.41, 2.25, 1.98, 8.52, repro,
1999-09-20,1.06, -0.40, 6.01, 2.37, 2.06, 8.81, repro,
1999-09-21,1.67, -1.13, 5.20, 2.34, 2.03, 8.94, repro,
1999-09-22,1.36, -2.39, 2.54, 2.46, 2.14, 9.38, repro,
1999-09-23,1.12, -1.72, 2.58, 2.36, 2.07, 8.87, repro,
1999-09-24,2.64, -0.59, 20.54, 2.40, 2.06, 8.94, repro,
1999-09-25,0.98, 0.94, 13.97, 2.23, 1.97, 8.46, repro,
1999-09-26,1.70, -1.10, 9.81, 2.53, 2.22, 9.71, repro,
1999-09-27,0.95, -1.09, 3.82, 2.48, 2.13, 9.46, repro,
1999-09-28,1.76, -0.97, 6.21, 2.49, 2.13, 9.32, repro,
1999-09-29,1.15, -1.08, 4.46, 2.76, 2.46, 10.36, repro,
1999-09-30,1.34, -0.64, 7.55, 2.90, 2.54, 10.71, repro,
1999-10-01,-0.16, -0.18, 8.15, 2.78, 2.35, 10.39, repro,
1999-10-02,1.88, -0.24, 13.16, 2.43, 2.16, 9.29, repro,
1999-10-03,2.27, 0.58, 5.78, 2.62, 2.23, 9.61, repro,
1999-10-04,3.04, -0.53, 10.98, 2.29, 2.07, 8.74, repro,
1999-10-05,0.27, -0.20, 14.27, 2.44, 2.12, 8.99, repro,
1999-10-06,3.14, 1.15, 23.49, 2.36, 2.13, 9.13, repro,
1999-10-07,-2.84, -2.08, 10.02, 2.43, 2.01, 8.97, repro,
1999-10-08,2.49, -0.71, 5.57, 2.52, 2.22, 9.24, repro,
1999-10-09,2.15, -0.80, 7.46, 2.40, 2.08, 8.91, repro,
1999-10-10,1.63, -0.63, 8.66, 2.35, 1.98, 8.85, repro,
1999-10-11,0.94, 0.13, 10.82, 2.31, 1.99, 8.77, repro,
1999-10-12,2.09, -0.95, 6.31, 2.42, 2.07, 9.34, repro,
1999-10-13,2.46, -1.44, 5.23, 2.48, 2.10, 9.34, repro,
1999-10-14,1.17, -0.79, 8.47, 2.26, 1.96, 8.56, repro,
1999-10-15,0.68, -0.41, 13.66, 2.37, 2.03, 8.87, repro,
1999-10-16,1.18, -1.24, 22.68, 2.22, 1.95, 8.56, repro,
1999-10-17,1.47, 0.55, 11.99, 2.32, 1.94, 9.22, repro,
1999-10-18,-1.69, -0.52, 14.36, 2.48, 1.98, 9.48, repro,
1999-10-19,1.64, -1.00, 5.51, 2.31, 1.91, 9.09, repro,
1999-10-20,-0.21, -0.96, 10.23, 2.18, 1.91, 8.45, repro,
1999-10-21,-0.08, -0.30, 9.06, 2.20, 1.97, 8.91, repro,
1999-10-27,-0.25, -1.62, 18.86, 2.16, 1.84, 8.63, repro,
1999-10-28,-0.41, -1.37, 28.53, 2.23, 1.93, 8.55, repro,
1999-10-29,0.47, -1.70, 26.23, 2.28, 1.99, 8.79, repro,
1999-10-30,-0.39, -0.30, 15.10, 2.14, 1.84, 8.39, repro,
1999-10-31,0.06, -1.72, 17.20, 2.45, 1.97, 9.25, repro,
1999-11-01,-0.24, -0.47, 7.56, 2.43, 2.02, 9.20, repro,
1999-11-02,0.39, 0.23, 19.36, 2.36, 1.96, 8.81, repro,
1999-11-03,0.69, -1.50, 19.71, 2.40, 1.94, 9.21, repro,
1999-11-04,-0.89, -1.04, 18.56, 2.23, 1.90, 8.56, repro,
1999-11-05,-1.27, -0.86, 16.60, 2.25, 1.86, 8.60, repro,
1999-11-06,-0.84, -1.04, 13.30, 2.23, 1.88, 8.62, repro,
1999-11-07,-0.60, -0.77, 13.28, 2.25, 1.92, 8.68, repro,
1999-11-08,1.17, 1.14, 24.41, 2.12, 1.86, 8.48, repro,
1999-11-09,0.18, -2.24, 26.46, 2.13, 1.84, 8.24, repro,
1999-11-10,-2.66, -1.32, 16.02, 2.17, 1.85, 8.57, repro,
1999-11-11,-1.58, -1.27, 15.19, 2.11, 1.84, 8.39, repro,
1999-11-12,-0.49, -0.88, 14.32, 2.15, 1.87, 8.41, repro,
1999-11-13,-1.24, -1.28, 24.52, 2.27, 1.90, 8.72, repro,
1999-11-14,-0.01, -2.33, 21.90, 2.13, 1.87, 8.45, repro,
1999-11-15,-1.01, -0.89, 13.02, 2.17, 1.83, 8.49, repro,
1999-11-16,-0.10, 0.56, 27.51, 2.19, 1.91, 8.52, repro,
1999-11-17,-1.05, 0.30, 24.64, 2.11, 1.85, 8.41, repro,
1999-11-18,-1.33, -1.79, 19.99, 2.12, 1.86, 8.36, repro,
1999-11-19,-1.53, -1.22, 25.11, 2.20, 1.93, 8.67, repro,
1999-11-20,-2.91, -1.61, 24.41, 2.23, 1.97, 8.60, repro,
1999-11-22,-2.89, -1.12, 26.15, 2.42, 2.01, 8.92, repro,
1999-11-23,-1.15, -0.64, 10.00, 2.53, 2.27, 10.04, repro,
1999-11-24,-1.02, 1.97, 15.00, 2.60, 2.39, 10.45, repro,
1999-11-25,0.54, -2.21, 17.87, 2.33, 2.02, 9.07, repro,
1999-11-26,-0.26, -0.22, 18.35, 2.24, 2.12, 9.01, repro,
1999-11-27,-0.79, -0.52, 14.23, 2.13, 1.93, 8.41, repro,
1999-11-28,-0.06, -0.25, 7.16, 2.16, 1.93, 8.61, repro,
1999-11-29,0.34, -0.98, 5.65, 2.15, 1.95, 8.70, repro,
1999-11-30,-0.45, -0.99, 7.23, 2.29, 1.95, 8.90, repro,
1999-12-01,44.25, -41.11, 28.99, 28.52, 27.13, 93.54, repro,
1999-12-02,-0.34, -0.78, 12.66, 2.05, 1.83, 8.21, repro,
1999-12-03,-3.34, -0.73, 23.18, 2.39, 2.23, 9.64, repro,
1999-12-04,-0.91, -0.86, 11.92, 3.75, 3.68, 15.40, repro,
1999-12-10,1.44, -1.60, 4.75, 2.49, 2.12, 9.70, repro,
1999-12-11,-2.29, -1.39, 12.04, 2.22, 2.04, 9.02, repro,
1999-12-12,-0.58, -1.79, 6.41, 2.32, 2.17, 9.40, repro,
1999-12-13,-2.22, -1.34, 11.20, 2.38, 2.39, 9.69, repro,
1999-12-14,-1.03, -1.66, 5.08, 2.44, 2.10, 9.49, repro,
1999-12-15,-2.54, -1.00, 15.57, 2.41, 2.16, 10.01, repro,
1999-12-16,-1.28, -1.24, 12.49, 2.34, 2.12, 9.41, repro,
1999-12-17,-0.47, -0.03, 12.91, 2.24, 2.09, 9.01, repro,
1999-12-18,-3.62, -1.87, 8.46, 2.38, 2.20, 9.34, repro,
1999-12-19,-1.06, -2.51, 12.54, 2.13, 1.99, 8.82, repro,
1999-12-20,-3.09, -1.82, 14.38, 2.23, 2.04, 9.10, repro,
1999-12-21,-3.90, -0.24, 15.71, 2.44, 2.10, 9.94, repro,
1999-12-22,-0.81, -2.49, 6.11, 2.29, 2.03, 9.21, repro,
1999-12-23,-2.44, -3.54, 7.12, 2.32, 2.29, 9.86, repro,
1999-12-24,-1.36, -1.80, 2.76, 2.50, 2.42, 10.89, repro,
1999-12-25,0.21, -1.13, 5.52, 2.15, 1.98, 8.77, repro,
1999-12-26,-1.54, -2.82, 7.02, 2.11, 2.05, 8.88, repro,
1999-12-27,-0.26, -1.54, -9.19, 2.05, 1.85, 8.32, repro,
1999-12-28,-1.40, -1.83, -2.26, 2.27, 1.91, 9.14, repro,
1999-12-29,-2.10, -0.98, 8.74, 2.20, 2.00, 9.04, repro,
1999-12-30,-0.26, -1.43, 16.45, 2.12, 1.91, 8.76, repro,
1999-12-31,-0.52, -1.77, 13.78, 2.15, 1.90, 8.73, repro,
2000-01-01,-1.91, -1.03, 15.02, 2.27, 1.96, 9.20, repro,
2000-01-02,-2.15, -2.58, 16.71, 2.06, 1.86, 8.27, repro,
2000-01-03,-2.07, -1.86, 11.72, 2.09, 1.87, 8.50, repro,
2000-01-04,-1.74, -0.89, 9.37, 2.15, 1.85, 8.54, repro,
2000-01-05,-0.50, -1.88, 14.90, 2.04, 1.80, 8.10, repro,
2000-01-06,-2.95, -1.54, 0.03, 2.07, 1.80, 8.29, repro,
2000-01-07,-1.19, -1.34, 3.60, 2.25, 1.94, 8.98, repro,
2000-01-08,-1.89, -0.92, 7.91, 2.03, 1.79, 8.09, repro,
2000-01-09,-1.37, -1.19, 12.27, 2.03, 1.81, 8.11, repro,
2000-01-10,-2.19, -1.76, 12.59, 2.09, 1.85, 8.57, repro,
2000-01-11,-0.76, 0.16, 9.79, 2.04, 1.81, 8.31, repro,
2000-01-12,-0.83, -0.01, -3.47, 2.18, 1.94, 9.05, repro,
2000-01-13,-1.40, -0.15, 0.84, 2.28, 1.94, 9.55, repro,
2000-01-14,-1.22, -1.61, 0.35, 2.26, 1.89, 9.22, repro,
2000-01-15,-2.02, -0.37, 11.48, 2.25, 1.97, 9.51, repro,
2000-01-16,-2.80, 0.26, 11.31, 2.03, 1.81, 8.28, repro,
2000-01-17,-1.32, -2.18, 6.83, 2.07, 1.82, 8.49, repro,
2000-01-18,-1.90, -0.61, 13.11, 2.07, 1.84, 8.57, repro,
2000-01-19,-1.81, -1.78, 8.28, 2.07, 1.83, 8.50, repro,
2000-01-20,-1.32, -1.66, 14.73, 2.17, 1.86, 9.01, repro,
2000-01-21,-2.66, -1.69, 19.49, 2.05, 1.87, 8.35, repro,
2000-01-22,-0.44, -0.43, 21.52, 2.12, 1.89, 8.71, repro,
2000-01-23,-2.21, -1.70, 12.76, 2.16, 1.92, 9.14, repro,
2000-01-24,-0.10, -2.02, 14.32, 2.08, 1.80, 8.40, repro,
2000-01-25,-1.97, 0.09, 8.38, 2.12, 1.87, 8.72, repro,
2000-01-26,0.14, 0.62, 14.52, 2.21, 1.85, 9.03, repro,
2000-01-27,-3.57, -1.35, 8.27, 2.16, 1.82, 8.85, repro,
2000-01-28,-1.84, -1.90, 11.42, 2.14, 1.87, 8.81, repro,
2000-01-29,-2.58, -1.27, 13.19, 2.27, 1.97, 9.52, repro,
2000-01-30,-2.10, -0.67, 7.52, 2.17, 1.84, 8.84, repro,
2000-01-31,-1.62, -0.55, 17.42, 2.27, 1.87, 9.14, repro,
2000-02-01,-1.19, 0.25, 5.54, 2.34, 1.91, 9.53, repro,
2000-02-02,-1.95, -1.40, 2.85, 2.32, 1.90, 9.49, repro,
2000-02-03,-0.71, -1.00, 9.41, 2.23, 1.89, 9.21, repro,
2000-02-04,-2.37, -0.78, 19.75, 2.12, 1.88, 8.79, repro,
2000-02-05,-2.19, -1.22, 10.39, 2.24, 1.90, 9.30, repro,
2000-02-06,-2.48, 0.05, 14.05, 2.04, 1.82, 8.24, repro,
2000-02-07,-1.11, -0.45, 3.92, 2.10, 1.81, 8.47, repro,
2000-02-08,-1.92, -0.87, 9.79, 2.09, 1.87, 8.60, repro,
2000-02-09,-2.75, -1.65, 7.66, 2.09, 1.94, 8.76, repro,
2000-02-10,-3.45, -0.22, 10.71, 2.08, 1.85, 8.40, repro,
2000-02-11,-2.57, -0.15, 6.94, 2.05, 1.81, 8.23, repro,
2000-02-12,-2.07, 1.18, 4.92, 2.05, 1.83, 8.30, repro,
2000-02-13,-1.27, -2.17, 11.14, 2.00, 1.76, 7.99, repro,
2000-02-14,-0.05, 1.34, 29.00, 2.10, 1.89, 8.64, repro,
2000-02-15,-0.80, -0.25, 1.04, 2.17, 1.87, 8.81, repro,
2000-02-16,-1.74, 0.17, -3.64, 2.06, 1.83, 8.30, repro,
2000-02-17,-2.22, -0.50, 11.46, 2.04, 1.79, 8.10, repro,
2000-02-18,-2.66, -1.03, 4.25, 2.03, 1.77, 8.05, repro,
2000-02-19,-2.43, -1.59, 7.07, 2.05, 1.81, 8.21, repro,
2000-02-20,-3.60, -0.87, 3.30, 2.12, 1.87, 8.58, repro,
2000-02-21,-1.89, -1.78, 13.08, 2.13, 1.88, 8.56, repro,
2000-02-22,-3.92, -1.12, 6.10, 2.11, 1.84, 8.34, repro,
2000-02-23,-1.75, -1.94, 3.52, 2.07, 1.86, 8.43, repro,
2000-02-24,-2.77, -0.95, 7.22, 2.00, 1.77, 8.01, repro,
2000-02-25,-2.66, -1.62, 5.80, 2.04, 1.79, 8.11, repro,
2000-02-26,-3.24, -2.13, 10.62, 2.31, 2.17, 9.10, repro,
2000-02-27,-2.71, -3.28, 13.99, 2.06, 1.80, 8.18, repro,
2000-02-28,-2.17, -1.02, 10.96, 2.11, 1.82, 8.49, repro,
2000-02-29,-2.29, -0.44, 13.84, 2.15, 1.88, 8.79, repro,
2000-03-01,-4.97, -2.42, 13.23, 2.53, 2.67, 11.13, repro,
2000-03-02,-2.54, -0.22, 7.98, 2.10, 1.85, 8.43, repro,
2000-03-03,-2.51, -2.11, 10.22, 2.13, 1.96, 8.80, repro,
2000-03-04,-2.47, -1.24, 18.53, 2.25, 2.05, 9.14, repro,
2000-03-05,-2.07, -2.55, 12.51, 2.08, 1.80, 8.27, repro,
2000-03-06,-2.41, -0.93, 12.43, 2.14, 1.90, 8.62, repro,
2000-03-07,-2.73, -0.67, 9.57, 2.25, 2.03, 9.21, repro,
2000-03-08,-1.80, -1.19, 8.29, 2.11, 1.89, 8.56, repro,
2000-03-09,0.40, -0.05, 7.47, 2.12, 1.89, 8.52, repro,
2000-03-10,-0.99, -1.24, -0.15, 2.35, 2.05, 9.26, repro,
2000-03-11,-1.61, -1.15, 1.37, 2.21, 1.92, 8.79, repro,
2000-03-12,-2.15, -0.57, 1.50, 2.41, 2.06, 9.58, repro,
2000-03-13,-2.66, -3.39, 1.79, 2.37, 2.04, 9.37, repro,
2000-03-14,-1.43, -2.79, 5.51, 2.21, 2.03, 9.14, repro,
2000-03-15,-0.65, -4.02, 8.00, 2.15, 1.90, 8.65, repro,
2000-03-16,-1.70, -2.70, 14.12, 2.14, 1.94, 8.75, repro,
2000-03-17,-2.21, -1.31, 3.97, 2.16, 1.98, 8.87, repro,
2000-03-18,-0.44, -3.67, 0.54, 2.19, 1.95, 8.73, repro,
2000-03-19,-1.89, -1.74, 18.09, 2.13, 1.89, 8.49, repro,
2000-03-20,-3.09, -0.31, 9.68, 2.32, 2.02, 9.21, repro,
2000-03-21,-2.20, -2.70, 10.26, 2.22, 1.90, 8.62, repro,
2000-03-22,-1.30, -1.49, 7.80, 2.28, 1.99, 8.88, repro,
2000-03-23,-2.56, -2.05, 8.44, 2.22, 1.94, 8.79, repro,
2000-03-24,-2.56, -1.35, 0.89, 2.29, 2.08, 9.18, repro,
2000-03-25,-1.34, -3.07, 11.69, 2.10, 1.84, 8.39, repro,
2000-03-26,-2.05, -3.01, 10.58, 2.33, 1.99, 9.17, repro,
2000-03-27,-1.38, -1.51, 10.50, 2.30, 1.86, 9.06, repro,
2000-03-28,-3.01, -0.65, 11.60, 2.16, 1.83, 8.61, repro,
2000-03-29,-2.74, -2.71, 13.59, 2.18, 1.82, 8.69, repro,
2000-03-30,-3.34, -0.50, 5.34, 2.17, 1.84, 8.62, repro,
2000-03-31,-2.45, -0.18, 6.86, 2.21, 1.93, 8.97, repro,
2000-04-01,-1.53, -0.56, 6.87, 2.19, 1.88, 8.78, repro,
2000-04-02,-2.41, -1.80, 11.93, 2.22, 1.89, 8.88, repro,
2000-04-03,-2.04, -1.17, 3.14, 2.15, 1.80, 8.49, repro,
2000-04-04,-3.07, -0.66, 11.45, 2.15, 1.76, 8.30, repro,
2000-04-05,-2.92, -0.36, 18.55, 2.14, 1.76, 8.43, repro,
2000-04-06,-1.40, -1.09, 11.18, 2.28, 1.86, 8.79, repro,
2000-04-07,-2.70, -0.64, 9.04, 2.26, 1.82, 8.69, repro,
2000-04-08,-2.08, -0.76, 4.70, 2.14, 1.83, 8.61, repro,
2000-04-09,-2.78, -1.11, 14.40, 2.12, 1.81, 8.52, repro,
2000-04-10,-2.43, -3.12, 17.49, 2.10, 1.82, 8.48, repro,
2000-04-11,-3.87, -0.81, 11.96, 2.10, 1.76, 8.33, repro,
2000-04-12,-1.93, -0.81, 14.59, 2.21, 1.87, 8.98, repro,
2000-04-13,-2.15, 0.42, 3.79, 2.16, 1.81, 8.60, repro,
2000-04-14,-5.00, -1.69, 8.70, 2.29, 1.92, 9.07, repro,
2000-04-15,-2.78, -1.07, 16.95, 2.08, 1.73, 8.26, repro,
2000-04-16,-2.96, -1.90, 8.24, 2.09, 1.76, 8.34, repro,
2000-04-17,-4.16, -0.54, 16.39, 2.12, 1.83, 8.40, repro,
2000-04-18,-3.64, 1.73, 23.28, 2.16, 1.89, 8.49, repro,
2000-04-19,-1.49, -2.17, 10.04, 2.10, 1.80, 8.47, repro,
2000-04-20,-2.59, -1.81, 5.14, 2.14, 1.76, 8.46, repro,
2000-04-21,-2.10, -1.25, 11.58, 2.16, 1.79, 8.58, repro,
2000-04-22,-2.70, -1.65, 17.63, 2.10, 1.79, 8.43, repro,
2000-04-23,-2.42, -1.63, 18.83, 2.14, 1.77, 8.48, repro,
2000-04-24,-2.08, -1.92, 14.64, 2.12, 1.76, 8.46, repro,
2000-04-25,-1.74, -1.27, 7.31, 2.11, 1.76, 8.39, repro,
2000-04-26,-1.70, -2.68, 6.10, 2.16, 1.84, 8.57, repro,
2000-04-27,-2.44, -1.94, 2.88, 2.13, 1.76, 8.48, repro,
2000-04-28,-4.28, 1.34, 15.70, 2.16, 1.89, 8.74, repro,
2000-04-29,-1.46, -3.35, 14.84, 2.12, 1.81, 8.39, repro,
2000-04-30,-2.16, -1.33, 2.71, 2.15, 1.86, 8.53, repro,
2000-05-01,-1.38, -1.64, 7.84, 2.14, 1.84, 8.56, repro,
2000-05-02,-3.88, -0.24, 12.99, 2.20, 1.93, 8.74, repro,
2000-05-03,-2.63, -1.71, 13.91, 2.24, 1.98, 8.96, repro,
2000-05-04,-1.62, -1.03, 12.79, 2.14, 1.83, 8.48, repro,
2000-05-05,0.02, 5.34, 19.84, 2.11, 1.79, 8.35, repro,
2000-05-06,-1.76, -2.50, 23.10, 2.13, 1.75, 8.36, repro,
2000-05-07,-1.56, -2.09, 25.13, 2.10, 1.77, 8.42, repro,
2000-05-08,-3.64, -1.09, 15.21, 2.19, 1.89, 8.80, repro,
2000-05-09,-1.72, -1.52, 9.74, 2.16, 1.88, 8.64, repro,
2000-05-10,0.13, 0.50, 18.02, 2.11, 1.76, 8.28, repro,
2000-05-11,-0.11, -2.26, 13.52, 2.14, 1.84, 8.51, repro,
2000-05-12,-3.00, -2.11, 18.07, 2.14, 1.83, 8.43, repro,
2000-05-13,-3.85, -0.99, 23.95, 2.16, 1.86, 8.62, repro,
2000-05-14,-0.16, -1.00, 15.54, 2.15, 1.85, 8.45, repro,
2000-05-15,-2.88, -1.82, 19.45, 2.17, 1.85, 8.46, repro,
2000-05-16,-4.34, 3.04, 19.27, 2.18, 1.91, 8.87, repro,
2000-05-17,-1.65, -2.59, 13.34, 2.10, 1.78, 8.35, repro,
2000-05-18,-1.53, -0.41, 11.39, 2.12, 1.80, 8.53, repro,
2000-05-19,-1.15, -1.95, 10.95, 2.05, 1.75, 8.19, repro,
2000-05-20,-1.55, -0.61, 12.50, 2.10, 1.78, 8.41, repro,
2000-05-21,-1.20, -2.64, 12.60, 2.13, 1.83, 8.52, repro,
2000-05-22,-1.69, -1.78, 12.87, 2.10, 1.78, 8.28, repro,
2000-05-23,-1.85, -0.81, 21.46, 2.21, 1.82, 8.56, repro,
2000-05-24,-1.46, -0.84, 29.57, 2.34, 1.98, 9.18, repro,
2000-05-25,-3.11, -1.81, 16.82, 2.13, 1.83, 8.52, repro,
2000-05-26,-3.03, -1.21, 14.54, 2.13, 1.79, 8.53, repro,
2000-05-27,-3.88, -2.57, 15.05, 2.17, 1.79, 8.54, repro,
2000-05-28,-1.65, -1.34, 4.89, 2.19, 1.85, 8.75, repro,
2000-05-29,-2.73, -2.95, 24.64, 2.08, 1.77, 8.31, repro,
2000-05-30,-1.08, 1.27, 20.16, 2.10, 1.74, 8.34, repro,
2000-05-31,-1.96, -1.24, 18.75, 2.10, 1.77, 8.40, repro,
2000-06-01,-1.77, -3.21, 8.17, 2.14, 1.82, 8.52, repro,
2000-06-02,-1.44, -1.41, 8.05, 2.02, 1.74, 8.06, repro,
2000-06-03,-2.98, -1.43, 16.71, 2.03, 1.77, 8.12, repro,
2000-06-04,-2.09, -0.46, 13.02, 2.01, 1.77, 8.07, repro,
2000-06-05,-1.35, -1.49, 12.01, 2.04, 1.79, 8.16, repro,
2000-06-06,-2.17, -2.00, 13.64, 2.04, 1.78, 8.12, repro,
2000-06-07,-2.78, -2.16, 19.90, 2.04, 1.75, 8.08, repro,
2000-06-08,1.35, 0.04, 18.91, 2.03, 1.75, 8.02, repro,